Location: downtown San Diego
(32.7310°N, 117.1990°W)
Time: 17:31:58
(UTC-07:00)

Cosmos 2218 Rocket - Pass Details

Date: 19 May 2017
Orbit: 957 x 1005 km, 82.9° (Epoch: 25 July)

Event Time Altitude Azimuth Distance (km) Brightness Sun altitude
Rises 23:21:31 0° 354° (N) 3,641 8.0 -33.6°
Reaches altitude 10° 23:24:01 10° 355° (N) 2,692 7.1 -33.8°
Enters shadow 23:28:44 55° 360° (N) 1,136 4.5 -34.1°
